This is the latest recevied weather packets stored in our database for station/object K3BAY-1. If no packets are shown the sender has not sent any weather packets the latest 10 day(s).
| Time | Temp. | Humidity | Pressure | Rain* | Wind** | Luminosity | Snow |
|---|---|---|---|---|---|---|---|
| 1778003098 | 28.89° C | 36% | 1012.9 hPa | 0 mm | - | 750 W/m² | - |
| 1778002794 | 28.33° C | 35% | 1012.9 hPa | 0 mm | - | 759 W/m² | - |
| 1778002490 | 28.89° C | 36% | 1012.9 hPa | 0 mm | - | 762 W/m² | - |
| 1778002187 | 27.78° C | 37% | 1012.9 hPa | 0 mm | - | 761 W/m² | - |
| 1778001886 | 27.78° C | 43% | 1012.6 hPa | 0 mm | - | 763 W/m² | - |
| 1778001585 | 27.78° C | 45% | 1012.9 hPa | 0 mm | - | 762 W/m² | - |
| 1778001282 | 27.78° C | 45% | 1012.9 hPa | 0 mm | - | 753 W/m² | - |
| 1778000979 | 27.78° C | 47% | 1012.9 hPa | 0 mm | - | 736 W/m² | - |
| 1778000675 | 28.33° C | 46% | 1012.9 hPa | 0 mm | - | 75 W/m² | - |
| 1778000371 | 28.33° C | 43% | 1012.6 hPa | 0 mm | - | 60 W/m² | - |
| 1778000067 | 28.33° C | 39% | 1012.9 hPa | 0 mm | - | 65 W/m² | - |
| 1777999762 | 27.78° C | 46% | 1012.9 hPa | 0 mm | - | 74 W/m² | - |
| 1777999459 | 28.33° C | 43% | 1012.6 hPa | 0 mm | - | 741 W/m² | - |
| 1777999157 | 28.33° C | 42% | 1012.6 hPa | 0 mm | - | 455 W/m² | - |
| 1777998856 | 28.33° C | 38% | 1012.6 hPa | 0 mm | - | 124 W/m² | - |
| 1777998554 | 28.33° C | 40% | 1012.6 hPa | 0 mm | - | 56 W/m² | - |
| 1777998250 | 27.78° C | 41% | 1012.9 hPa | 0 mm | - | 57 W/m² | - |
| 1777997947 | 28.33° C | 38% | 1012.6 hPa | 0 mm | - | 55 W/m² | - |
| 1777997644 | 28.33° C | 40% | 1012.9 hPa | 0 mm | - | 54 W/m² | - |
| 1777997341 | 27.78° C | 41% | 1012.6 hPa | 0 mm | - | 53 W/m² | - |
| 1777997039 | 27.78° C | 41% | 1012.6 hPa | 0 mm | - | 54 W/m² | - |
| 1777996736 | 27.78° C | 42% | 1012.2 hPa | 0 mm | - | 90 W/m² | - |
| 1777996431 | 27.22° C | 42% | 1012.2 hPa | 0 mm | - | 53 W/m² | - |
| 1777996128 | 27.78° C | 42% | 1012.2 hPa | 0 mm | - | 50 W/m² | - |
| 1777995824 | 27.22° C | 42% | 1012.2 hPa | 0 mm | - | 50 W/m² | - |
* Rain latest hour (hover to see other rain measurements)
** Current wind speed in m/s (hover to see current wind gust speed)